Weather History for Pratt, KS

Change the Weather History Date:

Monday, October 22, 2012

  Actual Average (KP28) Record (KP28)
Temperature  
Mean Temperature 58 °F 56 °F  
Max Temperature 69 °F 69 °F 92 °F (1927)
Min Temperature 46 °F 44 °F 23 °F (1982)
Degree Days  
Heating Degree Days 8 9  
Month to date heating degree days 137  
Since 1 July heating degree days 171  
Cooling Degree Days 0 0  
Month to date cooling degree days 37  
Year to date cooling degree days 1768  
Growing Degree Days 8 (Base 50)    
Moisture  
Dew Point 52 °F    
Average Humidity 78    
Maximum Humidity 100    
Minimum Humidity 53    
Precipitation  
Precipitation 0.00 in 0.09 in 2.10 in (1941)
Month to date precipitation 2.13  
Year to date precipitation 24.58  
Snow  
Snow 0.00 in 0.00 in - ()
Month to date snowfall 0.0  
Since 1 July snowfall 0.0  
Since 1 September snowfall 0.0  
Snow Depth -    
Sea Level Pressure  
Sea Level Pressure 29.81 in    
Wind  
Wind Speed 9 mph (WNW)    
Max Wind Speed 16 mph    
Max Gust Speed -    
Visibility 7 miles    
Events Fog    
T = Trace of Precipitation, MM = Missing Value Source: NWS Daily Summary

Daily Weather History Graph

Daily Weather History Graph

Search for Another Location

Airport:

Trip Planner

Search our weather history database for the weather conditions in past years. The results will help you decide how hot, cold, wet, or windy it might be!

Date:

Astronomy

Oct. 22, 2012 Rise Set
Actual Time 7:50 AM CDT 6:47 PM CDT
Civil Twilight 7:23 AM CDT 7:14 PM CDT
Nautical Twilight 6:53 AM CDT 7:44 PM CDT
Astronomical Twilight 6:22 AM CDT 8:15 PM CDT
Moon 2:49 PM CDT (10/22) 12:46 AM CDT (10/22)
Length of Visible Light 11h 50m
Length of Day
10h 57m
First Quarter, 56% of the Moon is Illuminated
Oct 22
First Quarter
Oct 29
Full
Nov 6
Last Quarter
Nov 13
New
Nov 20
First Quarter

Hourly Weather History & Observations

Time (CDT) Temp. Windchill Dew Point Humidity Pressure Visibility Wind Dir Wind Speed Gust Speed Precip Events Conditions
12:35 AM 69.8 °F - 51.8 °F 53% 29.69 in 10.0 mi South 16.1 mph - N/A   Clear
12:55 AM 69.8 °F - 53.6 °F 56% 29.69 in 10.0 mi South 16.1 mph - N/A   Clear
1:35 AM 66.2 °F - 53.6 °F 64% 29.70 in 10.0 mi South 12.7 mph - N/A   Clear
1:55 AM 64.4 °F - 53.6 °F 68% 29.69 in 10.0 mi South 11.5 mph - N/A   Clear
2:55 AM 59.0 °F - 53.6 °F 82% 29.71 in 10.0 mi WSW 9.2 mph - N/A   Clear
3:15 AM 50.0 °F - 41.0 °F 71% 29.72 in 10.0 mi West 9.2 mph - N/A   Clear
3:55 AM 46.4 °F 43.5 °F 42.8 °F 87% 29.73 in 10.0 mi WNW 5.8 mph - N/A   Clear
4:55 AM 46.4 °F 42.4 °F 46.4 °F 100% 29.74 in 4.0 mi WNW 8.1 mph - N/A   Clear
5:15 AM 48.2 °F - 48.2 °F 100% 29.74 in 3.0 mi NW 9.2 mph - N/A   Clear
5:35 AM 46.4 °F 42.4 °F 46.4 °F 100% 29.74 in 0.2 mi NW 8.1 mph - N/A Fog Fog
6:15 AM 50.0 °F - 50.0 °F 100% 29.76 in 0.2 mi Calm Calm - N/A Fog Fog
6:35 AM 51.8 °F - 51.8 °F 100% 29.77 in 0.2 mi NNW 8.1 mph - N/A Fog Fog
7:15 AM 53.6 °F - 53.6 °F 100% 29.79 in 0.2 mi NW 9.2 mph - N/A Fog Fog
7:35 AM 53.6 °F - 53.6 °F 100% 29.80 in 0.2 mi NNW 10.4 mph - N/A Fog Fog
8:55 AM 53.6 °F - 53.6 °F 100% 29.84 in 0.8 mi NNW 10.4 mph - N/A   Overcast
9:35 AM 53.6 °F - 53.6 °F 100% 29.85 in 1.2 mi NNW 10.4 mph - N/A   Overcast
9:55 AM 55.4 °F - 53.6 °F 94% 29.85 in 2.5 mi North 8.1 mph - N/A   Overcast
10:15 AM 55.4 °F - 53.6 °F 94% 29.86 in 3.0 mi North 9.2 mph - N/A   Overcast
10:35 AM 55.4 °F - 53.6 °F 94% 29.85 in 4.0 mi NNW 9.2 mph - N/A   Overcast
10:55 AM 57.2 °F - 53.6 °F 88% 29.87 in 3.0 mi NW 6.9 mph - N/A   Overcast
11:35 AM 59.0 °F - 53.6 °F 82% 29.87 in 5.0 mi NW 9.2 mph - N/A   Haze
11:55 AM 59.0 °F - 53.6 °F 82% 29.88 in 5.0 mi WNW 5.8 mph - N/A   Haze
12:15 PM 60.8 °F - 53.6 °F 77% 29.88 in 7.0 mi NW 4.6 mph - N/A   Overcast
12:35 PM 62.6 °F - 53.6 °F 72% 29.86 in 7.0 mi NNW 5.8 mph - N/A   Scattered Clouds
12:55 PM 64.4 °F - 51.8 °F 64% 29.86 in 10.0 mi NNE 3.5 mph - N/A   Clear
1:15 PM 64.4 °F - 51.8 °F 64% 29.86 in 10.0 mi Calm Calm - N/A   Clear
1:35 PM 64.4 °F - 51.8 °F 64% 29.89 in 10.0 mi SW 5.8 mph - N/A   Scattered Clouds
1:55 PM 64.4 °F - 53.6 °F 68% 29.88 in 10.0 mi SSW 10.4 mph - N/A   Mostly Cloudy
2:15 PM 62.6 °F - 53.6 °F 72% 29.86 in 7.0 mi WSW 6.9 mph - N/A   Scattered Clouds
2:35 PM 62.6 °F - 53.6 °F 72% 29.85 in 10.0 mi West 5.8 mph - N/A   Clear
3:15 PM 62.6 °F - 53.6 °F 72% 29.85 in 7.0 mi WNW 8.1 mph - N/A   Clear
3:35 PM 62.6 °F - 53.6 °F 72% 29.85 in 7.0 mi West 6.9 mph - N/A   Clear
3:55 PM 64.4 °F - 53.6 °F 68% 29.84 in 7.0 mi West 5.8 mph - N/A   Clear
4:15 PM 64.4 °F - 53.6 °F 68% 29.84 in 7.0 mi West 3.5 mph - N/A   Clear
4:35 PM 66.2 °F - 53.6 °F 64% 29.83 in 7.0 mi Calm Calm - N/A   Clear
5:15 PM 68.0 °F - 53.6 °F 60% 29.83 in 10.0 mi Calm Calm - N/A   Clear
5:35 PM 68.0 °F - 53.6 °F 60% 29.83 in 7.0 mi Calm Calm - N/A   Clear
5:55 PM 66.2 °F - 51.8 °F 60% 29.83 in 10.0 mi Calm Calm - N/A   Clear
6:15 PM 66.2 °F - 51.8 °F 60% 29.82 in 10.0 mi ESE 4.6 mph - N/A   Clear
6:35 PM 66.2 °F - 51.8 °F 60% 29.82 in 10.0 mi Calm Calm - N/A   Clear
6:55 PM 64.4 °F - 51.8 °F 64% 29.82 in 10.0 mi Calm Calm - N/A   Clear
7:35 PM 62.6 °F - 51.8 °F 68% 29.83 in 5.0 mi Calm Calm - N/A   Haze
8:55 PM 59.0 °F - 51.8 °F 77% 29.83 in 10.0 mi Calm Calm - N/A   Clear
9:15 PM 57.2 °F - 51.8 °F 82% 29.83 in 10.0 mi Calm Calm - N/A   Clear
9:55 PM 55.4 °F - 51.8 °F 88% 29.82 in 10.0 mi East 3.5 mph - N/A   Clear
10:35 PM 55.4 °F - 51.8 °F 88% 29.81 in 10.0 mi ESE 5.8 mph - N/A   Clear
11:15 PM 59.0 °F - 51.8 °F 77% 29.80 in 10.0 mi SSE 6.9 mph - N/A   Clear
11:35 PM 59.0 °F - 53.6 °F 82% 29.80 in 10.0 mi South 11.5 mph - N/A   Clear
11:55 PM 60.8 °F - 55.4 °F 82% 29.80 in 10.0 mi South 10.4 mph - N/A   Clear